Вернуться в каталог

BIFROST-DNK

АктивенЛюбительское радиоSSO
NORAD 64588·PAYLOAD·🇩🇰 Denmark

Запущен Jun 23, 2025 с Vandenberg Space Force Base

Loading…

Ближайшие Пролёты (ближайшие 24 часа)

TLE

СвежийSource: Space-Track

Эпоха: Sep 14, 2026, 13:41 UTC

1 64588U 25135BN  26257.57043816  .00001506  00000-0  14305-3 0  9991
2 64588  97.7820  11.4802 0005350  59.8462 300.3288 14.94998545 67262

Отслеживайте BIFROST-DNK в реальном времени с AllMySat

Download on the App Store